EN

Hourly Weather Dundee

Today, 1 March, Monday

Time Temperature Precipitation Wind Pressure Humidity
00:00 +5°C° 0 mm 1 mps 766 mmHg 87%
01:00 +5°C° 0 mm 1 mps 765 mmHg 87%
02:00 +4°C° 0 mm 1 mps 765 mmHg 87%
03:00 +4°C° 0 mm 1 mps 765 mmHg 87%
04:00 +3°C° 0 mm 0 mps 765 mmHg 87%
05:00 +3°C° 0 mm 0 mps 764 mmHg 87%
06:00 +2°C° 0 mm 0 mps 764 mmHg 88%
07:00 +3°C° 0 mm 0 mps 764 mmHg 86%
08:00 +4°C° 0 mm 0 mps 764 mmHg 83%
09:00 +5°C° 0 mm 0 mps 764 mmHg 81%
10:00 +6°C° 0 mm 0 mps 764 mmHg 77%
11:00 +7°C° 0 mm 0 mps 764 mmHg 73%
12:00 +9°C° 0 mm 1 mps 764 mmHg 69%
13:00 +9°C° 0 mm 1 mps 764 mmHg 69%
14:00 +8°C° 0 mm 2 mps 764 mmHg 68%
15:00 +8°C° 0 mm 2 mps 764 mmHg 68%
16:00 +7°C° 0 mm 2 mps 763 mmHg 75%
17:00 +6°C° 0 mm 2 mps 763 mmHg 82%
18:00 +4°C° 0 mm 2 mps 763 mmHg 89%
19:00 +5°C° 0 mm 1 mps 763 mmHg 90%
20:00 +4°C° 0 mm 1 mps 763 mmHg 91%
21:00 +4°C° 0 mm 1 mps 763 mmHg 92%
22:00 +4°C° 0 mm 1 mps 763 mmHg 93%
23:00 +3°C° 0 mm 1 mps 763 mmHg 93%

Tomorrow, 2 March, Tuesday

Time Temperature Precipitation Wind Pressure Humidity
00:00 +3°C° 0 mm 1 mps 763 mmHg 94%
01:00 +3°C° 0 mm 1 mps 763 mmHg 94%
02:00 +3°C° 0 mm 1 mps 763 mmHg 95%
03:00 +3°C° 0 mm 1 mps 762 mmHg 96%
04:00 +3°C° 0 mm 1 mps 762 mmHg 95%
05:00 +3°C° 0 mm 1 mps 762 mmHg 95%
06:00 +4°C° 0 mm 1 mps 762 mmHg 95%
07:00 +4°C° 0 mm 1 mps 762 mmHg 93%
08:00 +4°C° 0 mm 1 mps 762 mmHg 91%
09:00 +5°C° 0 mm 1 mps 762 mmHg 89%
10:00 +6°C° 0 mm 1 mps 762 mmHg 84%
11:00 +7°C° 0 mm 1 mps 762 mmHg 80%
12:00 +8°C° 0 mm 1 mps 762 mmHg 75%
13:00 +8°C° 0 mm 1 mps 762 mmHg 73%
14:00 +9°C° 0 mm 1 mps 761 mmHg 70%
15:00 +9°C° 0 mm 1 mps 761 mmHg 68%
16:00 +8°C° 0 mm 1 mps 761 mmHg 74%
17:00 +5°C° 0 mm 0 mps 761 mmHg 80%
18:00 +4°C° 0 mm 0 mps 761 mmHg 86%
19:00 +4°C° 0 mm 0 mps 761 mmHg 86%
20:00 +3°C° 0 mm 0 mps 761 mmHg 87%
21:00 +3°C° 0 mm 0 mps 761 mmHg 87%
22:00 +3°C° 0 mm 0 mps 761 mmHg 86%
23:00 +3°C° 0 mm 0 mps 761 mmHg 86%

Day after tomorrow, 3 March, Wednesday

Time Temperature Precipitation Wind Pressure Humidity
00:00 +3°C° 0 mm 1 mps 761 mmHg 85%
01:00 +3°C° 0 mm 1 mps 760 mmHg 84%
02:00 +3°C° 0 mm 1 mps 760 mmHg 84%
03:00 +3°C° 0 mm 1 mps 760 mmHg 83%
04:00 +3°C° 0 mm 1 mps 760 mmHg 82%
05:00 +3°C° 0 mm 1 mps 760 mmHg 82%
06:00 +2°C° 0 mm 1 mps 760 mmHg 81%
07:00 +3°C° 0 mm 1 mps 760 mmHg 78%
08:00 +4°C° 0 mm 1 mps 759 mmHg 74%
09:00 +5°C° 0 mm 1 mps 759 mmHg 71%
10:00 +6°C° 0 mm 1 mps 759 mmHg 68%
11:00 +8°C° 0 mm 1 mps 759 mmHg 66%
12:00 +9°C° 0 mm 1 mps 759 mmHg 63%
13:00 +9°C° 0 mm 1 mps 759 mmHg 65%
14:00 +8°C° 0 mm 2 mps 759 mmHg 66%
15:00 +8°C° 0 mm 2 mps 759 mmHg 67%
16:00 +7°C° 0 mm 1 mps 758 mmHg 74%
17:00 +6°C° 0 mm 1 mps 758 mmHg 81%
18:00 +5°C° 0 mm 1 mps 758 mmHg 88%
19:00 +4°C° 0 mm 1 mps 758 mmHg 89%
20:00 +4°C° 0 mm 1 mps 758 mmHg 90%
21:00 +4°C° 0 mm 1 mps 758 mmHg 91%
22:00 +4°C° 0 mm 1 mps 758 mmHg 90%
23:00 +5°C° 0 mm 1 mps 758 mmHg 90%

4 March, Thursday

Time Temperature Precipitation Wind Pressure Humidity
00:00 +5°C° 0 mm 1 mps 758 mmHg 90%
01:00 +4°C° 0 mm 2 mps 758 mmHg 89%
02:00 +4°C° 0 mm 2 mps 758 mmHg 89%
03:00 +4°C° 0 mm 2 mps 758 mmHg 89%
04:00 +3°C° 0 mm 2 mps 758 mmHg 88%
05:00 +3°C° 0 mm 2 mps 758 mmHg 87%
06:00 +3°C° 0 mm 2 mps 759 mmHg 86%
07:00 +1°C° 0.1 mm 4 mps 759 mmHg 85%
08:00 +1°C° 0.1 mm 5 mps 759 mmHg 84%
09:00 +1°C° 0.1 mm 6 mps 760 mmHg 83%
10:00 +1°C° 0 mm 6 mps 760 mmHg 77%
11:00 +1°C° 0 mm 6 mps 761 mmHg 71%
12:00 +1°C° 0 mm 6 mps 761 mmHg 64%
13:00 +1°C° 0 mm 6 mps 761 mmHg 64%
14:00 +1°C° 0 mm 6 mps 761 mmHg 64%
15:00 +2°C° 0 mm 5 mps 761 mmHg 63%
16:00 +1°C° 0 mm 5 mps 761 mmHg 65%
17:00 0°C° 0 mm 4 mps 762 mmHg 67%
18:00 0°C° 0 mm 4 mps 762 mmHg 69%
19:00 -1°C° 0 mm 4 mps 762 mmHg 71%
20:00 -1°C° 0 mm 4 mps 762 mmHg 73%
21:00 -2°C° 0 mm 4 mps 762 mmHg 75%
22:00 -1°C° 0 mm 3 mps 763 mmHg 76%
23:00 -2°C° 0 mm 3 mps 763 mmHg 76%

5 March, Friday

Time Temperature Precipitation Wind Pressure Humidity
00:00 -2°C° 0 mm 2 mps 763 mmHg 77%
01:00 -2°C° 0 mm 2 mps 763 mmHg 77%
02:00 -2°C° 0 mm 2 mps 763 mmHg 76%
03:00 -2°C° 0 mm 2 mps 763 mmHg 76%
04:00 -2°C° 0 mm 2 mps 763 mmHg 76%
05:00 -2°C° 0 mm 2 mps 763 mmHg 76%
06:00 -2°C° 0 mm 2 mps 763 mmHg 76%
07:00 -1°C° 0 mm 2 mps 764 mmHg 72%
08:00 -1°C° 0 mm 2 mps 764 mmHg 67%
09:00 +1°C° 0 mm 2 mps 764 mmHg 63%
10:00 +2°C° 0 mm 2 mps 764 mmHg 59%
11:00 +4°C° 0 mm 1 mps 764 mmHg 55%
12:00 +5°C° 0 mm 1 mps 765 mmHg 51%
13:00 +5°C° 0 mm 1 mps 764 mmHg 51%
14:00 +5°C° 0 mm 1 mps 764 mmHg 50%
15:00 +6°C° 0 mm 1 mps 764 mmHg 49%
16:00 +4°C° 0 mm 1 mps 764 mmHg 55%
17:00 +3°C° 0 mm 1 mps 764 mmHg 61%
18:00 +2°C° 0 mm 1 mps 764 mmHg 66%
19:00 +2°C° 0 mm 1 mps 765 mmHg 67%
20:00 +1°C° 0 mm 1 mps 765 mmHg 69%
21:00 +1°C° 0 mm 1 mps 765 mmHg 70%
22:00 +1°C° 0 mm 1 mps 765 mmHg 70%
23:00 +1°C° 0 mm 1 mps 765 mmHg 70%

6 March, Saturday

Time Temperature Precipitation Wind Pressure Humidity
00:00 0°C° 0 mm 1 mps 766 mmHg 70%
01:00 -2°C° 0 mm 2 mps 765 mmHg 71%
02:00 -2°C° 0 mm 2 mps 765 mmHg 72%
03:00 -2°C° 0 mm 2 mps 765 mmHg 72%
04:00 -2°C° 0 mm 2 mps 765 mmHg 74%
05:00 -2°C° 0 mm 2 mps 765 mmHg 75%
06:00 -2°C° 0 mm 2 mps 765 mmHg 77%
07:00 -1°C° 0 mm 2 mps 765 mmHg 74%
08:00 -1°C° 0 mm 2 mps 765 mmHg 72%
09:00 +1°C° 0 mm 2 mps 765 mmHg 69%
10:00 +2°C° 0 mm 2 mps 765 mmHg 64%
11:00 +4°C° 0 mm 2 mps 765 mmHg 60%
12:00 +5°C° 0 mm 2 mps 765 mmHg 55%
13:00 +4°C° 0 mm 3 mps 765 mmHg 54%
14:00 +5°C° 0 mm 3 mps 765 mmHg 53%
15:00 +7°C° 0 mm 3 mps 764 mmHg 53%
16:00 +4°C° 0 mm 3 mps 764 mmHg 59%
17:00 +2°C° 0 mm 3 mps 764 mmHg 66%
18:00 +1°C° 0 mm 3 mps 764 mmHg 72%
19:00 0°C° 0 mm 3 mps 764 mmHg 74%
20:00 0°C° 0 mm 3 mps 764 mmHg 76%
21:00 -1°C° 0 mm 3 mps 764 mmHg 79%
22:00 -2°C° 0 mm 4 mps 764 mmHg 80%
23:00 -2°C° 0 mm 4 mps 763 mmHg 81%
Show more